Погода в Ла-Эррадуре

Испания     36°44′07″N   3°44′11″W
темп.,
°C
ветер,
м/с
пор.,
м/с
влажн.,
%
обл.,
%
осадки,
мм/ч
давл.,
гПа
погр.,
м
12 апреля, пн
пн1223:00+17с66661 0.0 101749
02:00+16ссз6667100 0.0 101754
05:00+16ссв676812 0.0 101863
08:00+16с3364100 0.0 101924
11:00+15юв668853 0.1 1021309
14:00+15вюв6675100 0.1 1022485
17:00+15вюв4673100 0.0 1022428
20:00+15вюв2380100 0.0 1022269
13 апреля, вт
вт1323:00+14вюв1283100 0.0 1024272
02:00+14юв338130 0.0 1024466
05:00+14всв127968 0.0 1023384
08:00+13юв1280100 0.0 1023347
11:00+14ююз1179100 0.0 1024228
14:00+13вюв1182100 0.0 1023221
17:00+14юв2279100 0.0 1021314
20:00+14юв3277100 0.0 1021272
14 апреля, ср
ср1423:00+14всв1276100 0.0 1022265
02:00+14всв1277100 0.0 1020247
05:00+14всв1176100 0.0 1018246
08:00+14зюз227396 0.0 1018207
11:00+14ююв2272100 0.0 1019258
14:00+14ю4373100 0.1 1019440
17:00+13ссв1278100 1.4 1016197
20:00+12з1193100 7.4 1015115
15 апреля, чт
чт1523:00+12юз2296100 2.1 1017177
02:00+12зюз2288100 2.8 1015223
05:00+12ссз2289100 4.1 1014168
08:00+12вюв1295100 10.2 1014197
11:00+12ю2297100 5.8 1014221
14:00+12ю2298100 12.2 1014211
17:00+12ююз3398100 5.9 1013230
20:00+13юз4494100 7.3 1013325
16 апреля, пт
пт1623:00+13зюз5593100 2.1 1014360
02:00+13зюз5593100 4.9 1014391
05:00+13зюз4492100 1.9 1013372
08:00+12ююз3395100 4.4 1014295
11:00+12ююв4397100 1.7 1016317
14:00+12ююв3397100 3.0 1017325
17:00+12юз1196100 0.3 1017151
20:00+12ссз129073 0.4 1018162